TITAN 3C TRANSTAGE DEB, 43455

Orbit data source: Space-Track

TITAN 3C TRANSTAGE DEB, 43455 is space debris in GEO originally from a launch on Sun, 09 Feb 1969 UTC launched from the Air Force Eastern Test Range (AFETR). Debris objects in space refer to the collection of defunct objects orbiting the Earth. Examples of debris include non-operational satellites, rocket bodies, and fragments generated from explosions, collisions, or faulty payload assembly.

Not visible in the next 10 days
Identifier
43455, 1969-013N
Orbit
GEO
Last TLE update
22 hours ago
Origin
Manufacturer
Martin Marietta
Mission
Spacecraft
Bus & Motor
Unknown
Mass
Unknown
Launch date (UTC)
1969-02-09 (56 years ago)
Launch vehicle
Unknown
Launch site
Air Force Eastern Test Range (AFETR)
Object type
Payload
Rocket body
Debris
Shape & HBR
Unknown
Radar Cross Section
RCS unknown

Expand to show TLE details & history

TLE from 22 hours ago
0 TITAN 3C TRANSTAGE DEB
1 43455U 69013N   25181.47039250 -.00000115  00000-0  00000-0 0  9995
2 43455   1.2571 178.3645 0169698 308.6355  49.4309  0.94017342 25042
Epoch: 2025-06-30T11:17Z
TLE epoch observation values (Epoch: 2025-06-30T11:17:21.912Z)
Latitude
0.00001°
Longitude
89.83451°
Altitude
37,158.737 km
Speed
3.042 km/s
True Right ascension
11h 51m 49s
True Declination
0° 00' 00"
Sunlit
Object was in daylight at epoch
Visualization orbit readout
Latitude
-1.02173°
Longitude
34.2651°
Altitude
36,889.487 km
Speed
3.061 km/s
Apparent Right ascension
08h 12m 24s
Apparent Declination
-5° 44' 41"
Sunlit
Object is in daylight
Visualization observer readout
Local Sidereal Time
20:37:47
Azimuth
11.153° NNE
Elevation
-55.355°
Doppler factor
1
Orbital elements
Apogee altitude
38,384.403 km
Perigee altitude
36,890.531 km
Semi-major axis
44,015.604 km
Eccentricity
0.01697
Inclination
1.2571°
RAAN
178.3645°
Arg. of periapsis
308.6355°
True anomaly
Unknown
Mean anomaly
49.4309°
Eccentric anomaly
Unknown
Mean motion
0.23504 °/min
Orbital period
1,531.68 mins
BSTAR
0
Loading historical data...
43455 neighbors
Loading maneuver chart data...
Loading SW <> Apogee altitude chart data...

TITAN 3C TRANSTAGE DEB Visibility

Observer location: undefined°, undefined°

TITAN 3C TRANSTAGE DEB is likely not visible in the next few days
Span
Click to sort rows by Start time (UTC) header in descending order
Start Az.
Max El. time (UTC)
Max El. Az.
Max El.
End time (UTC)
End Az.
|